Kuchera_Ratio
0.0 0.0 0.0 0.0 0.0 0.0 0.0 0.0 0.0 0.0 0.0 0.0 0.0 0.0 0.0 0.0 0.0 0.0 0.0 0.0 0.0 0.0 0.0 0.0 0.0 0.0 0.0 0.0 0.0 0.0 0.0 0.0 0.0 0.0 0.0 0.0 0.0 0.0 0.0 0.0 0.0 0.0 0.0
0.0 0.0 0.0 0.0 0.0 0.0 0.0 0.0 0.0 0.0 0.0 0.0 0.0 0.0 0.0 0.0 0.0 0.0 0.0 0.0 0.0 0.0 0.0 0.0 0.0 0.0 0.0 0.0 0.0 0.0 0.0 0.0 0.0 0.0 0.0 0.0 0.0 0.0 0.0 0.0 0.0 0.0 0.0
0.0 0.0 0.0 0.0 0.0 0.0 0.0 0.0 0.0 0.0 0.0 0.0 0.0 0.0 0.0 0.0 0.0 0.0 0.0 0.0 0.0 0.0 0.0 0.0 0.0 0.0 0.0 0.0 0.0 0.0 0.0 0.0 0.0 0.0 0.0 0.0 0.0 0.0 0.0 0.0 0.0 0.0 0.0
0.0 0.0 0.0 0.0 0.0 0.0 0.0 0.0 0.0 0.0 0.0 0.0 0.0 0.0 0.0 0.0 0.0 0.0 0.0 0.0 0.0 0.0 0.0 0.0 0.0 0.0 0.0 0.0 0.0 0.0 0.0 0.0 0.0 0.0 0.0 0.0 0.0 0.0 0.0 0.0 0.0 0.0 0.0
0.0 0.0 0.0 0.0 0.0 0.0 0.0 0.0 0.0 0.0 0.0 0.0 0.0 0.0 0.0 0.0 0.0 0.0 0.0 0.0 0.0 0.0 0.0 0.0 0.0 0.0 0.0 0.0 0.0 0.0 0.0 0.0 0.0 0.0 0.0 0.0 0.0 0.0 0.0 0.0 0.0 0.0 0.0
0.0 0.0 0.0 0.0 0.0 0.0 0.0 0.0 0.0 0.0 0.0 0.0 0.0 0.0 0.0 0.0 0.0 0.0 0.0 0.0 0.0 0.0 0.0 0.0 0.0 0.0 0.0 0.0 0.0 0.0 0.0 0.0 0.0 0.0 0.0 0.0 0.0 0.0 0.0 0.0 0.0 0.0 0.0
0.0 0.0 0.0 0.0 0.0 0.0 0.0 0.0 0.0 0.0 0.0 0.0 0.0 0.0 0.0 0.0 0.0 0.0 0.0 0.0 0.0 0.0 0.0 0.0 0.0 0.0 0.0 0.0 0.0 0.0 0.0 0.0 0.0 0.0 0.0 0.0 0.0 0.0 0.0 0.0 0.0 0.0 0.0
0.0 0.0 0.0 0.0 0.0 0.0 0.0 0.0 0.0 0.0 0.0 0.0 0.0 0.0 0.0 0.0 0.0 0.0 0.0 0.0 0.0 0.0 0.0 0.0 0.0 0.0 0.0 0.0 0.0 0.0 0.0 0.0 0.0 0.0 0.0 0.0 0.0 0.0 0.0 0.0 0.0 0.0 0.0
0.0 0.0 0.0 0.0 0.0 0.0 0.0 0.0 0.0 0.0 0.0 0.0 0.0 0.0 0.0 0.0 0.0 0.0 0.0 0.0 0.0 0.0 0.0 0.0 0.0 0.0 0.0 0.0 0.0 0.0 0.0 0.0 0.0 0.0 0.0 0.0 0.0 0.0 0.0 0.0 0.0 0.0 0.0
0.0 0.0 0.0 0.0 0.0 0.0 0.0 0.0 0.0 0.0 0.0 0.0 0.0 0.0 0.0 0.0 0.0 0.0 0.0 0.0 0.0 0.0 0.0 0.0 0.0 0.0 0.0 0.0 0.0 0.0 0.0 0.0 0.0 0.0 0.0 0.0 0.0 0.0 0.0 0.0 0.0 0.0 0.0
0.0 0.0 0.0 0.0 0.0 0.0 0.0 0.0 0.0 0.0 0.0 0.0 0.0 0.0 0.0 0.0 0.0 0.0 0.0 0.0 0.0 0.0 0.0 0.0 0.0 0.0 0.0 0.0 0.0 0.0 0.0 0.0 0.0 0.0 0.0 0.0 0.0 0.0 0.0 0.0 0.0 0.0 0.0
0.0 0.0 0.0 0.0 0.0 0.0 0.0 0.0 0.0 0.0 0.0 0.0 0.0 0.0 0.0 0.0 0.0 0.0 0.0 0.0 0.0 0.0 0.0 0.0 0.0 0.0 0.0 0.0 0.0 0.0 0.0 0.0 0.0 0.0 0.0 0.0 0.0 0.0 0.0 0.0 0.0 0.0 0.0
0.0 0.0 0.0 0.0 0.0 0.0 0.0 0.0 0.0 0.0 0.0 0.0 0.0 0.0 0.0 0.0 0.0 0.0 0.0 0.0 0.0 0.0 0.0 0.0 0.0 0.0 0.0 0.0 0.0 0.0 0.0 0.0 0.0 0.0 0.0 0.0 0.0 0.0 0.1 0.1 0.2 0.3 0.4
0.0 0.0 0.0 0.0 0.0 0.0 0.0 0.0 0.0 0.0 0.0 0.0 0.0 0.0 0.0 0.0 0.0 0.0 0.0 0.0 0.0 0.0 0.0 0.0 0.0 0.0 0.0 0.0 0.0 0.0 0.0 0.0 0.1 0.3 0.4 0.6 0.9 1.3 1.5 1.5 1.6 2.0 2.2
0.0 0.0 0.0 0.0 0.0 0.0 0.0 0.0 0.0 0.0 0.0 0.0 0.0 0.0 0.0 0.0 0.0 0.0 0.0 0.0 0.0 0.0 0.0 0.0 0.0 0.0 0.0 0.0 0.0 0.0 0.3 0.8 1.3 1.7 1.9 2.1 2.2 0.8 3.0 3.2 3.1 3.3 3.5
0.0 0.0 0.0 0.0 0.0 0.0 0.0 0.0 0.0 0.0 0.0 0.0 0.0 0.0 0.0 0.0 0.0 0.0 0.0 0.0 0.0 0.0 0.0 0.0 0.0 0.0 0.0 0.0 0.0 0.7 0.9 1.8 2.1 2.5 3.1 3.2 1.7 2.1 0.0 0.0 0.0 4.8 5.1
0.0 0.0 0.0 0.0 0.0 0.0 0.0 0.0 0.0 0.0 0.0 0.0 0.0 0.0 0.0 0.0 0.0 0.0 0.0 0.0 0.0 0.0 0.0 0.0 0.0 0.0 0.0 0.0 0.0 0.0 2.4 2.8 3.2 4.0 4.4 4.9 2.4 3.2 5.6 1.4 0.0 0.0 0.0
0.0 0.0 0.0 0.0 0.0 0.0 0.0 0.0 0.0 0.0 0.0 0.0 0.0 0.0 0.0 0.0 0.0 0.0 0.0 0.0 0.0 0.0 0.0 0.0 0.0 0.7 0.8 0.0 0.0 0.0 4.0 4.3 4.9 5.2 5.6 5.9 6.3 5.5 7.0 8.0 8.1 8.1 6.4
0.0 0.0 0.0 0.0 0.0 0.0 0.0 0.0 0.0 0.0 0.0 0.0 0.0 0.0 0.0 0.0 0.0 0.0 0.0 0.3 0.5 0.2 0.1 0.4 1.7 1.8 1.9 0.0 0.0 0.0 5.9 6.1 6.2 6.2 7.2 7.7 7.6 3.8 0.0 7.9 8.8 9.4 8.6
0.0 0.0 0.0 0.0 0.0 0.0 0.0 0.0 0.0 0.0 0.0 0.0 0.0 0.0 0.0 0.0 0.0 0.0 0.3 1.9 2.7 2.0 2.4 3.1 3.1 4.1 4.9 0.9 0.0 0.0 6.9 8.5 8.2 8.8 7.9 1.0 6.9 1.5 0.0 7.1 9.5 11.3 10.1
1.7 1.3 1.5 1.4 0.7 0.6 0.8 0.3 0.5 0.7 1.1 1.7 1.6 1.0 0.6 0.1 0.0 0.0 0.9 2.6 4.3 5.1 4.8 4.1 2.9 3.0 3.8 5.4 0.0 0.0 6.9 7.1 9.1 9.0 8.7 6.8 0.0 0.0 0.0 0.0 9.7 8.7 7.8
5.4 4.5 3.9 3.7 4.3 3.9 3.0 2.2 1.6 2.3 2.8 2.7 2.2 2.1 2.8 3.0 3.1 3.4 3.9 4.5 5.0 5.3 4.9 4.7 4.3 4.6 5.7 3.9 1.0 0.0 0.0 3.7 8.6 9.2 8.4 7.9 1.4 0.0 0.0 0.5 0.6 0.7 1.8
8.7 7.7 7.3 7.8 7.6 7.1 6.8 5.7 5.1 4.4 4.2 4.7 5.0 5.1 5.0 4.9 5.0 5.2 5.4 5.3 5.2 5.1 5.5 6.4 6.8 7.2 8.3 9.5 1.3 0.0 0.0 0.0 6.8 7.7 6.8 4.3 2.1 0.8 1.8 0.0 0.0 0.6 7.0
11.8 10.3 8.9 8.1 8.4 8.5 7.5 6.5 6.7 7.1 7.0 6.6 6.4 6.5 6.5 6.5 7.1 7.4 7.4 7.3 7.5 7.8 8.3 8.7 8.8 9.8 10.5 11.3 11.2 8.6 6.6 1.8 2.9 4.5 5.7 5.2 5.0 4.0 6.6 5.9 6.4 7.7 9.9
12.9 12.8 12.6 12.5 11.8 10.8 9.9 9.3 9.0 8.7 9.5 9.7 9.4 9.5 9.2 8.6 8.3 8.9 10.1 9.9 10.1 10.3 10.6 11.1 11.7 12.2 12.3 12.8 9.9 10.3 11.6 12.4 8.8 11.3 12.6 12.9 13.0 13.3 13.0 12.6 12.4 12.1 12.3
14.0 13.7 13.3 13.3 13.1 13.0 13.0 13.0 12.8 12.5 12.3 12.4 12.4 12.2 12.2 12.4 12.5 12.4 12.4 12.3 12.3 9.5 9.1 8.4 12.3 12.4 8.6 6.5 5.6 5.8 6.0 6.0 5.9 12.8 14.8 14.5 14.2 14.4 14.0 13.9 13.5 12.9 12.5